CW9931 Weather Reports


Display with metric or nautical units.
time (UTC)temp
F
wind
direction
speed
MPH
gust
MPH
rain 1hr
in
rain 24hr
in
rain mn
in
humidity
%
barometer
mb
20260503224104 63 253 1.0 6.0 0.00 0.00 0.00 53 1006.8
20260503223603 63 186 2.0 14.0 0.00 0.00 0.00 54 1006.8
20260503223104 63 200 0.0 0.0 0.00 0.00 0.00 53 1006.8
20260503222604 63 212 0.0 0.0 0.00 0.00 0.00 54 1006.8
20260503222103 63 171 0.0 0.0 0.00 0.00 0.00 53 1006.8
20260503221603 63 342 0.0 12.0 0.00 0.00 0.00 54 1006.9
20260503221103 63 245 0.0 0.0 0.00 0.00 0.00 54 1007.1
20260503220604 63 183 0.0 12.0 0.00 0.00 0.00 53 1007.1
20260503220104 64 218 0.0 8.0 0.00 0.00 0.00 52 1007.1
20260503215604 64 236 5.0 8.0 0.00 0.00 0.00 53 1006.9
20260503215104 64 217 0.0 2.0 0.00 0.00 0.00 53 1006.8
20260503214104 63 195 2.0 9.0 0.00 0.00 0.00 52 1006.9
20260503213103 63 317 0.0 2.0 0.00 0.00 0.00 53 1007.4
20260503212603 63 219 0.0 12.0 0.00 0.00 0.00 52 1007.4
20260503212103 63 215 0.0 9.0 0.00 0.00 0.00 51 1007.5
20260503211103 64 189 1.0 8.0 0.00 0.00 0.00 51 1007.6
20260503210603 64 267 2.0 12.0 0.00 0.00 0.00 52 1007.7
20260503210104 64 215 3.0 14.0 0.00 0.00 0.00 49 1007.6
20260503205605 65 217 0.0 3.0 0.00 0.00 0.00 50 1007.4
20260503205103 64 196 8.0 15.0 0.00 0.00 0.00 49 1007.4
20260503204104 65 241 13.0 17.0 0.00 0.00 0.00 48 1007.3
20260503203603 64 204 12.0 17.0 0.00 0.00 0.00 48 1007.5
20260503203104 65 202 14.0 17.0 0.00 0.00 0.00 48 1007.6
20260503202604 65 205 15.0 15.0 0.00 0.00 0.00 48 1007.8
20260503201604 64 186 18.0 17.0 0.00 0.00 0.00 48 1008.3
20260503200603 64 236 4.0 12.0 0.00 0.00 0.00 48 1008.7
20260503200104 64 228 5.0 12.0 0.00 0.00 0.00 48 1008.9
20260503195604 64 182 0.0 3.0 0.00 0.00 0.00 49 1008.9
20260503195104 64 192 1.0 8.0 0.00 0.00 0.00 48 1008.9
20260503194604 64 225 5.0 12.0 0.00 0.00 0.00 48 1009.1
20260503194103 64 234 9.0 20.0 0.00 0.00 0.00 47 1009.1
20260503193604 63 193 13.0 17.0 0.00 0.00 0.00 48 1009.1
20260503193103 63 252 2.0 9.0 0.00 0.00 0.00 49 1009.4
20260503192603 63 209 0.0 15.0 0.00 0.00 0.00 48 1009.6
20260503192104 63 216 0.0 2.0 0.00 0.00 0.00 49 1010.0
20260503191603 62 194 0.0 12.0 0.00 0.00 0.00 48 1010.3
20260503190104 62 194 6.0 14.0 0.00 0.00 0.00 49 1010.6
20260503185604 62 186 0.0 2.0 0.00 0.00 0.00 48 1010.7
20260503185104 62 248 0.0 0.0 0.00 0.00 0.00 48 1011.0
20260503184603 62 203 9.0 12.0 0.00 0.00 0.00 47 1011.1
20260503184103 62 270 0.0 8.0 0.00 0.00 0.00 48 1011.4
20260503183603 62 218 0.0 6.0 0.00 0.00 0.00 46 1011.3
20260503183104 62 223 1.0 8.0 0.00 0.00 0.00 47 1011.2
20260503182604 62 218 0.0 0.0 0.00 0.00 0.00 47 1011.3
20260503182104 63 202 3.0 8.0 0.00 0.00 0.00 46 1011.6
20260503181604 63 252 2.0 14.0 0.00 0.00 0.00 48 1011.2
20260503181104 64 242 0.0 12.0 0.00 0.00 0.00 47 1011.1
20260503180104 63 195 0.0 2.0 0.00 0.00 0.00 48 1011.1
20260503175604 63 212 3.0 9.0 0.00 0.00 0.00 47 1011.3
20260503175104 63 214 4.0 23.0 0.00 0.00 0.00 46 1011.5
20260503174603 64 204 0.0 9.0 0.00 0.00 0.00 49 1011.6
20260503174104 64 179 0.0 0.0 0.00 0.00 0.00 49 1011.6
20260503173604 63 221 9.0 12.0 0.00 0.00 0.00 48 1011.6
20260503173104 63 186 0.0 2.0 0.00 0.00 0.00 49 1011.7
20260503172604 63 202 10.0 14.0 0.00 0.00 0.00 48 1011.9
20260503172104 63 176 5.0 12.0 0.00 0.00 0.00 49 1012.1
20260503171604 63 219 8.0 15.0 0.00 0.00 0.00 48 1012.2
20260503171104 63 218 1.0 12.0 0.00 0.00 0.00 48 1012.3
20260503170604 64 198 0.0 2.0 0.00 0.00 0.00 48 1012.4
20260503170104 64 233 0.0 0.0 0.00 0.00 0.00 48 1012.6
20260503150604 58 246 0.0 9.0 0.00 0.00 0.00 57 1014.4
20260503131104 49 238 0.0 0.0 0.00 0.00 0.00 71 1015.3
20260503130604 49 268 0.0 0.0 0.00 0.00 0.00 70 1015.3
20260503130103 48 206 0.0 0.0 0.00 0.00 0.00 71 1015.1
20260503120104 44 236 0.0 0.0 0.00 0.00 0.00 69 1015.0
20260503110604 42 212 0.0 0.0 0.00 0.00 0.00 71 1014.9
20260503100104 40 9 0.0 0.0 0.00 0.00 0.00 77 1014.8
20260503081604 39 5 0.0 0.0 0.00 0.00 0.00 79 1015.0
20260503081104 39 5 0.0 0.0 0.00 0.00 0.00 79 1015.0
20260503080103 39 31 0.0 0.0 0.00 0.00 0.00 79 1015.0
20260503072103 39 31 0.0 0.0 0.00 0.00 0.00 82 1015.1
20260503071103 39 31 0.0 0.0 0.00 0.00 0.00 83 1015.2
20260503070604 39 31 0.0 0.0 0.00 0.00 0.00 83 1015.3
20260503070104 38 31 0.0 0.0 0.00 0.00 0.00 83 1015.3
20260503060103 38 31 0.0 0.0 0.00 0.00 0.00 85 1015.6
20260503054604 38 31 0.0 0.0 0.00 0.00 0.00 85 1015.6
20260503054103 38 31 0.0 0.0 0.00 0.00 0.00 84 1015.6
20260503053603 38 31 0.0 0.0 0.00 0.00 0.00 84 1015.6
20260503053104 38 31 0.0 0.0 0.00 0.00 0.00 84 1015.7
20260503052603 38 31 0.0 0.0 0.00 0.00 0.00 83 1015.8
20260503052103 38 31 0.0 0.0 0.00 0.00 0.00 83 1015.8
20260503051603 39 31 0.0 0.0 0.00 0.00 0.00 83 1015.8
20260503051104 39 31 0.0 0.0 0.00 0.00 0.00 83 1015.8
20260503050603 39 31 0.0 0.0 0.00 0.00 0.00 83 1015.8
20260503045604 39 31 0.0 0.0 0.00 0.00 0.00 83 1015.9
20260503045103 39 31 0.0 0.0 0.00 0.00 0.00 82 1015.9
20260503044603 39 31 0.0 0.0 0.00 0.00 0.00 82 1015.8
20260503044103 39 31 0.0 0.0 0.00 0.00 0.00 82 1015.7
20260503043603 39 31 0.0 0.0 0.00 0.00 0.00 82 1015.7
20260503043103 39 31 0.0 0.0 0.00 0.00 0.00 82 1015.7
20260503041604 39 31 0.0 0.0 0.00 0.00 0.00 81 1015.8
20260503040603 39 31 0.0 0.0 0.00 0.00 0.00 82 1015.9
20260503040103 39 31 0.0 0.0 0.00 0.00 0.00 82 1015.9
20260503035603 39 31 0.0 0.0 0.00 0.00 0.00 81 1015.9
20260503034603 39 31 0.0 0.0 0.00 0.00 0.00 80 1015.9
20260503034103 39 31 0.0 0.0 0.00 0.00 0.00 81 1015.9
20260503033604 39 31 0.0 0.0 0.00 0.00 0.00 79 1016.0
20260503033103 39 31 0.0 0.0 0.00 0.00 0.00 78 1016.0
20260503032103 40 31 0.0 0.0 0.00 0.00 0.00 77 1016.0
20260503031604 40 31 0.0 0.0 0.00 0.00 0.00 77 1016.0
20260503031103 40 31 0.0 0.0 0.00 0.00 0.00 77 1016.1
20260503030603 40 31 0.0 0.0 0.00 0.00 0.00 77 1016.1
20260503025103 41 31 0.0 0.0 0.00 0.00 0.00 75 1016.1
20260503024603 41 31 0.0 0.0 0.00 0.00 0.00 74 1016.1
20260503024104 41 31 0.0 0.0 0.00 0.00 0.00 73 1016.1
20260503023604 41 31 0.0 0.0 0.00 0.00 0.00 74 1016.0
20260503023104 41 31 0.0 0.0 0.00 0.00 0.00 74 1015.9
20260503022603 41 31 0.0 0.0 0.00 0.00 0.00 73 1015.9
20260503022103 42 31 0.0 0.0 0.00 0.00 0.00 71 1015.8
20260503021104 42 31 0.0 0.0 0.00 0.00 0.00 70 1015.7
20260503020604 43 31 0.0 0.0 0.00 0.00 0.00 71 1015.7
20260503015604 43 31 0.0 0.0 0.00 0.00 0.00 71 1015.7
20260503015104 44 31 0.0 0.0 0.00 0.00 0.00 70 1015.7
20260503014103 44 31 0.0 0.0 0.00 0.00 0.00 69 1015.6
20260503013603 45 31 0.0 0.0 0.00 0.00 0.00 68 1015.6
20260503013103 45 31 0.0 0.0 0.00 0.00 0.00 67 1015.5
20260503012605 45 31 0.0 0.0 0.00 0.00 0.00 66 1015.5
20260503012104 46 31 0.0 0.0 0.00 0.00 0.00 66 1015.5
20260503011603 46 32 0.0 0.0 0.00 0.00 0.00 66 1015.5
20260503010604 46 37 0.0 0.0 0.00 0.00 0.00 67 1015.4
20260503010103 47 37 0.0 0.0 0.00 0.00 0.00 68 1015.4
20260503005604 47 37 0.0 0.0 0.00 0.00 0.00 65 1015.4
20260503005103 47 37 0.0 0.0 0.00 0.00 0.00 64 1015.5
20260503004604 48 55 0.0 0.0 0.00 0.00 0.00 62 1015.5
20260503004103 48 56 0.0 0.0 0.00 0.00 0.00 61 1015.5
20260503003604 49 55 0.0 0.0 0.00 0.00 0.00 60 1015.4
20260503003104 49 56 0.0 0.0 0.00 0.00 0.00 59 1015.3
20260503002604 50 55 0.0 0.0 0.00 0.00 0.00 58 1015.3
20260503002104 50 56 0.0 0.0 0.00 0.00 0.00 55 1015.3
20260503001604 51 56 0.0 0.0 0.00 0.00 0.00 54 1015.2
20260503001104 51 56 0.0 0.0 0.00 0.00 0.00 54 1015.2
20260503000604 52 56 0.0 0.0 0.00 0.00 0.00 52 1015.2
20260502235603 53 56 0.0 0.0 0.00 0.00 0.00 45 1015.2
20260502235103 54 56 0.0 0.0 0.00 0.00 0.00 46 1015.1
20260502234604 54 56 0.0 0.0 0.00 0.00 0.00 42 1015.1
20260502234104 54 10 0.0 0.0 0.00 0.00 0.00 42 1015.2
20260502233604 54 9 0.0 0.0 0.00 0.00 0.00 41 1015.2
20260502233103 54 23 0.0 0.0 0.00 0.00 0.00 42 1015.3
20260502232603 54 46 0.0 0.0 0.00 0.00 0.00 43 1015.3
20260502231604 54 344 0.0 0.0 0.00 0.00 0.00 41 1015.4
20260502231103 54 12 0.0 0.0 0.00 0.00 0.00 41 1015.4
20260502230604 54 36 0.0 0.0 0.00 0.00 0.00 41 1015.4
20260502225603 54 7 0.0 2.0 0.00 0.00 0.00 41 1015.5
20260502225103 54 30 0.0 0.0 0.00 0.00 0.00 42 1015.4